Regional Weather Roundup
Issued by NWS

Home | Current Version | Previous Version | Graphics & Text | Print | Product List | Glossary On
Versions: 1 2 3 4 5 6 7 8 9 10 11 12 13 14 15 16 17 18 19 20 21 22 23 24 25 26 27 28 29 30 31 32 33 34 35 36 37 38 39 40 41 42 43 44 45 46 47 48 49 50
000
ASUS45 KCYS 261510
RWRWY

WYOMING REGIONAL WEATHER ROUNDUP
NATIONAL WEATHER SERVICE CHEYENNE WY
900 AM MDT THU MAY 26 2016

NOTE:  "FAIR" INDICATES FEW OR NO CLOUDS BELOW 12,000 FEET
WITH NO SIGNIFICANT WEATHER AND/OR OBSTRUCTIONS TO VISIBILITY.

WYZ001-261600-
YELLOWSTONE NATIONAL PARK

CITY           SKY/WX    TMP DP  RH WIND       PRES   REMARKS
LK YELLOWSTONE   N/A     38  33  82 VRB3      30.12F
W YELLOWSTONE  NOT AVBL

$$
WYZ002>013-054>058-071-098>099-261600-
NORTHERN WYOMING

CITY           SKY/WX    TMP DP  RH WIND       PRES   REMARKS
JACKSON        NOT AVBL
CODY           FAIR      52  43  71 NE6       29.99S
GREYBULL       CLOUDY    50  45  83 SE6       29.98S
WORLAND        CLOUDY    52  46  80 SW6       29.99S
SHERIDAN       PTSUNNY   55  43  63 NW20G31   29.96R
BUFFALO          N/A    N/A N/A N/A MISG      29.97F
GILLETTE       CLOUDY    51  41  68 W10       29.96S
HULETT         PTSUNNY   54  45  71 SW8       29.95F
NEWCASTLE      FAIR      55  39  54 W9        29.96F

$$
WYZ014>020-022>026-101>103-261600-
CENTRAL WYOMING

CITY           SKY/WX    TMP DP  RH WIND       PRES   REMARKS
BIG PINEY      FAIR      50  34  54 N9        30.08S
PINEDALE       FAIR      45  36  70 NW14G20   30.07F
DUBOIS         FAIR      48  27  43 NW9G20    30.05F
LANDER         FAIR      54  35  48 NW13      30.00F
RIVERTON       FAIR      52  38  58 N6        30.02S
CASPER         FAIR      52  38  58 W8        30.01S
DOUGLAS          N/A    N/A N/A N/A MISG      30.01S

$$
WYZ021-027>030-104>119-261600-
SOUTHERN WYOMING

CITY           SKY/WX    TMP DP  RH WIND       PRES   REMARKS
EVANSTON       FAIR      43  37  79 N6        30.09S
KEMMERER         N/A     45  34  65 SW3       30.09F
FORT BRIDGER   SUNNY     45  39  81 CALM      30.12S
ROCK SPRINGS   FAIR      45  36  70 SW5       30.06F
DIXON          FAIR      49  34  57 CALM      30.06F
RAWLINS        FAIR      49  35  58 CALM      30.06F
SARATOGA       FAIR      46  32  57 CALM      30.07F
LARAMIE        FAIR      50  31  48 E3        30.04F
CHEYENNE       FAIR      55  40  56 VRB3      30.00F
TORRINGTON     FAIR      60  39  45 W10       29.95S
PINE BLUFFS    FAIR      55  41  58 CALM      30.00F

$$



USA.gov is the U.S. government's official web portal to all federal, state and local government web resources and services.